[Iaude] MPEC A145: 2024 AS3 [a=2.47,e=0.62,i=22.2,H=21.4,PHA]
    mpec at marsden.cfa.harvard.edu 
    mpec at marsden.cfa.harvard.edu
       
    Fri Jan 12 11:48:12 EST 2024
    
    
  
M.P.E.C. 2024-A145                             Issued 2024 January 12, 16:46 UT
     The Minor Planet Electronic Circulars contain information on unusual
         minor planets, routine data on comets and natural satellites,
         and occasional editorial announcements.  They are published
    on behalf of Division F of the International Astronomical Union by the
          Minor Planet Center, Smithsonian Astrophysical Observatory,
                          Cambridge, MA 02138, U.S.A.
			  
             Prepared using the Tamkin Foundation Computer Network
                              MPC at CFA.HARVARD.EDU
            URL https://www.minorplanetcenter.net/    ISSN 1523-6714
                                    2024 AS3                                    
Observations:
     K24A03S  C2024 01 07.56752011 55 06.122+21 56 06.81         20.75GVEA145F51
     K24A03S  C2024 01 07.57019611 55 06.160+21 56 22.60         20.90GVEA145F51
     K24A03S*KC2024 01 11.03632 11 56 30.69 +27 17 02.9          19.9 GXEA145L51
     K24A03S KC2024 01 11.03735 11 56 30.71 +27 17 08.1          20.4 GXEA145L51
     K24A03S KC2024 01 11.03839 11 56 30.70 +27 17 13.9          19.8 GXEA145L51
     K24A03S KC2024 01 11.07584 11 56 30.82 +27 20 28.0          20.0 GXEA145L51
     K24A03S KC2024 01 11.07809 11 56 30.82 +27 20 39.9          20.2 GXEA145L51
     K24A03S KC2024 01 11.08034 11 56 30.81 +27 20 51.4          19.9 GXEA145L51
     K24A03S KC2024 01 11.08572411 56 31.45 +27 21 17.9          21.0 GVEA145L01
     K24A03S KC2024 01 11.08740511 56 31.49 +27 21 26.8          20.8 GVEA145L01
     K24A03S KC2024 01 11.08908711 56 31.45 +27 21 34.7          21.0 GVEA145L01
     K24A03S KC2024 01 11.09076911 56 31.43 +27 21 43.8          20.9 GVEA145L01
     K24A03S 1C2024 01 11.11452 11 56 31.55 +27 23 44.3          20.1 VXEA145033
     K24A03S 1C2024 01 11.11550 11 56 31.54 +27 23 49.1          19.9 VXEA145033
     K24A03S 1C2024 01 11.11648 11 56 31.54 +27 23 54.2          19.9 VXEA145033
     K24A03S 1C2024 01 11.11766 11 56 31.55 +27 24 00.4          20.2 VXEA145033
     K24A03S 1C2024 01 11.21173 11 56 31.93 +27 32 04.6          19.8 VXEA145033
     K24A03S 1C2024 01 11.21270 11 56 31.90 +27 32 09.7          19.6 VXEA145033
     K24A03S 1C2024 01 11.21370 11 56 31.92 +27 32 14.9          19.6 VXEA145033
     K24A03S 1C2024 01 11.21488 11 56 31.88 +27 32 20.7          19.6 VXEA145033
     K24A03S KB2024 01 11.34954 11 56 35.53 +27 43 56.0          20.3 GXEA145H36
     K24A03S KB2024 01 11.35828 11 56 35.55 +27 44 41.0          20.4 GXEA145H36
     K24A03S KB2024 01 11.36665 11 56 35.52 +27 45 24.8          20.2 GXEA145H36
     K24A03S  C2024 01 12.18630 11 56 42.70 +28 54 02.7          21.0 RXEA145511
     K24A03S  C2024 01 12.18911 11 56 42.69 +28 54 16.0          20.9 RXEA145511
     K24A03S  C2024 01 12.19192 11 56 42.67 +28 54 30.3          21.0 RXEA145511
     K24A03S  C2024 01 12.19473 11 56 42.67 +28 54 43.9          21.0 RXEA145511
     K24A03S  C2024 01 12.19754 11 56 42.65 +28 54 57.9          21.1 RXEA145511
Observer details:
033 Karl Schwarzschild Observatory, Tautenburg.  Observers S. Melnikov, C.
    Hogner, F. Ludwig, M. Hartmann, B. Stecklum.  Measurer B. Stecklum.
    1.34-m f/3 Schmidt + CCD.
511 Haute Provence.  Observers K. Baillie, J. Desmars, A. Lekic, V. Robert, W.
    Thuillot.  Measurers W. Thuillot, S. Bouquillon, F. Taris, T. Carlucci,
    C. Barache.  1.20-m f/6  reflector + CCD.
F51 Pan-STARRS 1, Haleakala.  Observers J. Herman, T. Lowe, P. Minguez, A.
    Schultz, I. Smith.  Measurers K. Chambers, T. de Boer, J. Fairlamb, H.
    Gao, M. Huber, C.-C. Lin, E. Magnier, Y. Ramanjooloo, R. Wainscoat, R.
    Weryk.  1.8-m Ritchey-Chretien + CCD.
H36 Sandlot Observatory, Scranton.  Observer G. Hug.  0.56-m f/4.8 reflector +
    CMO.
L01 Visnjan Observatory, Tican.  Observers K. Korlevic, L. Poropat.  Measurer
    K. Korlevic.  1.0-m f/2.9 reflector + CCD.
L51 MARGO, Nauchnyi.  Observer G. Borisov.  0.50-m f/1.9 reflector + CCD.
Orbital elements:
2024 AS3                                            PHA, Earth MOID = 0.0410 AU
Epoch 2023 Sept. 13.0 TT = JDT 2460200.5                MPC                     
M 341.38908              (2000.0)            P               Q                  
n   0.25389760     Peri.  316.94813     +0.39538552     -0.84411864             
a   2.4700002      Node   106.69780     +0.91143198     +0.31169085             
e   0.6239542      Incl.   22.21394     +0.11385096     +0.43624824             
P   3.88           H   21.48          G   0.15           U   9                  
Residuals in seconds of arc
240107 F51  0.1+  0.1+    240111 L01  0.1-  0.5-    240111 H36  0.3+  0.1-
240107 F51  0.1-  0.1-    240111 L01  0.5-  0.1-    240111 H36  0.2+  0.2-
240111 L51  0.2+  0.3+    240111 033  0.0   0.4+    240111 H36  0.4-  0.4+
240111 L51  0.5+  0.1+    240111 033  0.2-  0.1+    240112 511  0.1+  0.3+
240111 L51  0.3+  0.5+    240111 033  0.2-  0.2+    240112 511  0.1+  0.3-
240111 L51  0.3+  0.1+    240111 033  0.2-  0.3+    240112 511  0.1-  0.1+
240111 L51  0.3+  0.4+    240111 033  0.5+  0.0     240112 511  0.1+  0.1-
240111 L51  0.1+  0.2+    240111 033  0.0   0.1+    240112 511  0.0   0.0
240111 L01  0.0   0.2+    240111 033  0.2+  0.2+
240111 L01  0.5+  0.3+    240111 033  0.4-  0.1-
Ephemeris:
2024 AS3                 a,e,i = 2.47, 0.62, 22                  q = 0.9288
Date    TT    R. A. (2000) Decl.     Delta      r    Elong.  Phase     V
2023 12 13    11 13 10.1 -36 19 27   0.1923  0.9615    77.5    91.2    21.0
...
2023 12 28    11 44 00.7 +00 50 58   0.1943  1.0339    99.6    69.7    20.4
...
2024 01 05    11 53 18.4 +17 29 02   0.2222  1.0850   111.6    57.4    20.5
...
2024 01 11    11 56 29.4 +27 14 01   0.2520  1.1275   119.0    49.7    20.6
2024 01 12    11 56 41.3 +28 38 43   0.2575  1.1349   120.2    48.5    20.6
2024 01 13    11 56 47.3 +30 00 01   0.2632  1.1424   121.2    47.4    20.7
...
2024 01 19    11 55 23.6 +37 01 36   0.3004  1.1886   126.9    41.5    20.9
...
2024 01 27    11 48 29.1 +43 53 03   0.3568  1.2532   132.4    35.5    21.2
...
2024 02 11    11 23 54.0 +50 56 08   0.4818  1.3804   137.4    29.0    21.9
A. U. Tomatic                (C) Copyright 2024 MPC           M.P.E.C. 2024-A145
    
    
More information about the Iaude
mailing list